Weather History for KHSE - September, 2012

Change the Weather History Date:

Wednesday, September 5, 2012

  Actual Average Record
Temperature  
Mean Temperature 82 °F 77 °F  
Max Temperature 86 °F 82 °F 91 °F (1983)
Min Temperature 78 °F 71 °F 57 °F (1997)
Degree Days  
Heating Degree Days 0 0  
Month to date heating degree days 0 0  
Since 1 July heating degree days 0 0  
Cooling Degree Days 17 12  
Month to date cooling degree days 86 60  
Year to date cooling degree days 1736 1366  
Growing Degree Days 32 (Base 50)    
Moisture  
Dew Point 74 °F    
Average Humidity 78    
Maximum Humidity 85    
Minimum Humidity 70    
Precipitation  
Precipitation T in 0.22 in 3.12 in (1963)
Month to date precipitation 0.24 1.13  
Year to date precipitation 36.49 38.32  
Snow  
Snow 0.00 in - - ()
Month to date snowfall 0.0  
Since 1 July snowfall 0.0  
Snow Depth 0.00 in    
Sea Level Pressure  
Sea Level Pressure 29.96 in    
Wind  
Wind Speed 11 mph (SW)    
Max Wind Speed 13 mph    
Max Gust Speed 21 mph    
Visibility 10 miles    
Events Rain    
T = Trace of Precipitation, MM = Missing Value Source: NWS Daily Summary

Daily Weather History Graph

Daily Weather History Graph

Search for Another Location

Airport or City:

Trip Planner

Search our weather history database for the weather conditions in past years. The results will help you decide how hot, cold, wet, or windy it might be!

Date:

Astronomy

Sep. 05, 2012 Rise Set
Actual Time 6:38 AM EDT 7:23 PM EDT
Civil Twilight 6:12 AM EDT 7:48 PM EDT
Nautical Twilight 5:42 AM EDT 8:19 PM EDT
Astronomical Twilight 5:10 AM EDT 8:50 PM EDT
Moon 10:05 PM EDT (9/5) 11:26 AM EDT (9/5)
Length of Visible Light 13h 36m
Length of Day
12h 44m
Waning Gibbous, 76% of the Moon is Illuminated
Sep 5
Waning Gibbous
Sep 8
Last Quarter
Sep 15
New
Sep 22
First Quarter
Sep 29
Full

Hourly Weather History & Observations

Time (EDT) Temp. Heat Index Dew Point Humidity Pressure Visibility Wind Dir Wind Speed Gust Speed Precip Events Conditions
12:51 AM 80.1 °F 84.2 °F 73.0 °F 79% 29.99 in 10.0 mi SSW 11.5 mph - N/A   Clear
1:51 AM 79.0 °F - 72.0 °F 79% 29.99 in 10.0 mi SSW 11.5 mph - N/A   Partly Cloudy
2:51 AM 79.0 °F - 73.0 °F 82% 29.98 in 10.0 mi SSW 10.4 mph - N/A   Mostly Cloudy
3:51 AM 79.0 °F - 73.0 °F 82% 29.96 in 10.0 mi SSW 9.2 mph - N/A   Scattered Clouds
4:51 AM 79.0 °F - 72.0 °F 79% 29.96 in 10.0 mi SW 9.2 mph - N/A   Clear
5:51 AM 79.0 °F - 72.0 °F 79% 29.96 in 10.0 mi SW 9.2 mph - N/A   Clear
6:51 AM 79.0 °F - 73.0 °F 82% 29.97 in 10.0 mi WSW 8.1 mph - N/A   Clear
7:51 AM 80.1 °F 84.5 °F 73.9 °F 81% 29.98 in 10.0 mi WSW 9.2 mph - N/A   Clear
8:51 AM 82.0 °F 87.4 °F 73.0 °F 74% 29.98 in 10.0 mi WSW 9.2 mph - N/A   Mostly Cloudy
9:15 AM 82.4 °F 88.2 °F 73.4 °F 74% 29.98 in 10.0 mi WSW 9.2 mph - N/A   Scattered Clouds
9:51 AM 79.0 °F - 72.0 °F 79% 29.99 in 6.0 mi West 6.9 mph - 0.00 in Rain Light Rain
10:51 AM 81.0 °F 85.8 °F 73.0 °F 77% 29.99 in 10.0 mi WSW 6.9 mph - 0.00 in   Clear
11:51 AM 84.0 °F 91.2 °F 73.9 °F 72% 29.98 in 10.0 mi SW 6.9 mph - N/A   Clear
12:51 PM 86.0 °F 95.1 °F 75.0 °F 70% 29.96 in 10.0 mi SW 10.4 mph - N/A   Clear
1:51 PM 84.9 °F 92.1 °F 73.9 °F 69% 29.96 in 10.0 mi SW 11.5 mph - N/A   Clear
2:51 PM 84.9 °F 93.3 °F 75.0 °F 72% 29.94 in 10.0 mi SW 12.7 mph 18.4 mph N/A   Clear
3:51 PM 82.9 °F 89.4 °F 73.9 °F 74% 29.92 in 10.0 mi SW 11.5 mph 18.4 mph N/A   Clear
4:51 PM 84.0 °F 92.6 °F 75.9 °F 76% 29.91 in 10.0 mi SW 12.7 mph 17.3 mph N/A   Clear
5:51 PM 82.9 °F 89.4 °F 73.9 °F 74% 29.92 in 10.0 mi SW 11.5 mph 18.4 mph N/A   Clear
6:51 PM 81.0 °F 86.2 °F 73.9 °F 79% 29.92 in 10.0 mi SW 10.4 mph 17.3 mph N/A   Clear
7:51 PM 81.0 °F 86.2 °F 73.9 °F 79% 29.93 in 10.0 mi SW 11.5 mph - N/A   Clear
8:51 PM 81.0 °F 86.2 °F 73.9 °F 79% 29.94 in 10.0 mi SW 11.5 mph 19.6 mph N/A   Clear
9:51 PM 81.0 °F 86.2 °F 73.9 °F 79% 29.94 in 10.0 mi SW 10.4 mph 18.4 mph N/A   Clear
10:51 PM 81.0 °F 86.7 °F 75.0 °F 82% 29.94 in 10.0 mi SW 11.5 mph - N/A   Clear
11:51 PM 81.0 °F 86.7 °F 75.0 °F 82% 29.94 in 10.0 mi SW 12.7 mph 20.7 mph N/A   Partly Cloudy